BOCF1T EGNX-KMIA

Flight info

Callsign BOCF1T
Flight time N/A
Altitude 38000
Route TNT Q4 WAL L10 PENIL M144 BAGSO DCT RINUS DCT MALOT/M084F380 DCT 54N020W 54N030W 54N040W 53N050W DCT RIKAL/N0478F380 N572A TOPPS DCT HTO DCT BEADS DCT SWL DCT SKARP AR22 HOAGG BNFSH3
Aircraft B77L/H-SDE1E2E3FGHIJ2J3J4J5M1RWXY/LB1D1

Departure

Time 2026-05-05 18:40
Airport East Midlands Airport (EGNX)

Arrival

Time N/A
Airport Miami International Airport (KMIA)
Time Latitude Longitude Altitude Speed Heading
2026-05-05 18:20 52.82721 -1.35036 321 ft 0 kts 178°
2026-05-05 18:32 52.82735 -1.35037 321 ft 4 kts 175°
2026-05-05 18:33 52.82762 -1.35041 321 ft 4 kts 175°
2026-05-05 18:33 52.82787 -1.35042 321 ft 4 kts 192°
2026-05-05 18:33 52.82809 -1.35031 317 ft 4 kts 206°
2026-05-05 18:33 52.82830 -1.35009 320 ft 4 kts 228°
2026-05-05 18:34 52.82842 -1.34978 320 ft 4 kts 261°
2026-05-05 18:34 52.82841 -1.34939 320 ft 4 kts 288°
2026-05-05 18:34 52.82831 -1.34898 320 ft 4 kts 289°
2026-05-05 18:34 52.82826 -1.34862 320 ft 1 kts 269°
2026-05-05 18:35 52.82826 -1.34861 320 ft 0 kts 268°
2026-05-05 18:37 52.82826 -1.34865 320 ft 2 kts 268°
2026-05-05 18:37 52.82824 -1.34957 320 ft 10 kts 268°
2026-05-05 18:37 52.82821 -1.35101 321 ft 16 kts 270°
2026-05-05 18:38 52.82822 -1.35233 321 ft 10 kts 297°
2026-05-05 18:38 52.82885 -1.35224 321 ft 12 kts 46°
2026-05-05 18:38 52.82896 -1.35087 321 ft 15 kts 90°
2026-05-05 18:38 52.82912 -1.34958 320 ft 4 kts 52°
2026-05-05 18:39 52.82964 -1.34934 320 ft 12 kts 358°
2026-05-05 18:39 52.83045 -1.34909 320 ft 16 kts 43°
2026-05-05 18:39 52.83064 -1.34672 318 ft 31 kts 93°
2026-05-05 18:39 52.83080 -1.33807 314 ft 122 kts 89°
2026-05-05 18:40 52.83120 -1.31899 355 ft 202 kts 89°
2026-05-05 18:40 52.83086 -1.29530 1218 ft 211 kts 89°
2026-05-05 18:40 52.83059 -1.26988 1763 ft 228 kts 91°
2026-05-05 18:40 52.83211 -1.24363 2224 ft 235 kts 63°
2026-05-05 18:41 52.84317 -1.22435 2911 ft 236 kts 23°
2026-05-05 18:41 52.85914 -1.22153 3743 ft 236 kts 345°
2026-05-05 18:41 52.87308 -1.23598 4439 ft 245 kts 311°
2026-05-05 18:41 52.88273 -1.25963 5113 ft 252 kts 303°
2026-05-05 18:42 52.89200 -1.28435 5920 ft 253 kts 304°
2026-05-05 18:42 52.90159 -1.30881 6704 ft 255 kts 305°
2026-05-05 18:42 52.91151 -1.33341 7409 ft 259 kts 305°
2026-05-05 18:42 52.92169 -1.35832 8131 ft 262 kts 306°
2026-05-05 18:43 52.93203 -1.38336 8866 ft 265 kts 305°
2026-05-05 18:43 52.94253 -1.40861 9569 ft 268 kts 305°
2026-05-05 18:43 52.95321 -1.43420 10271 ft 271 kts 305°
2026-05-05 18:43 52.96392 -1.45987 11021 ft 271 kts 304°
2026-05-05 18:44 52.97467 -1.48567 11708 ft 273 kts 304°
2026-05-05 18:44 52.98566 -1.51149 12380 ft 275 kts 305°
2026-05-05 18:44 52.99692 -1.53742 12999 ft 279 kts 305°
2026-05-05 18:44 53.00836 -1.56375 13628 ft 282 kts 305°
2026-05-05 18:45 53.01982 -1.59020 14294 ft 283 kts 304°
2026-05-05 18:45 53.03138 -1.61697 14903 ft 286 kts 304°
2026-05-05 18:45 53.04297 -1.64387 15501 ft 288 kts 304°
2026-05-05 18:45 53.05397 -1.67175 16007 ft 290 kts 293°
2026-05-05 18:46 53.06155 -1.70986 16605 ft 294 kts 285°
2026-05-05 18:46 53.06695 -1.74266 17214 ft 295 kts 284°
2026-05-05 18:46 53.07238 -1.77569 17804 ft 297 kts 284°
2026-05-05 18:46 53.07786 -1.80889 18340 ft 300 kts 284°
2026-05-05 18:47 53.08346 -1.84247 18870 ft 303 kts 284°
2026-05-05 18:47 53.08911 -1.87634 19417 ft 304 kts 284°
2026-05-05 18:47 53.09479 -1.91032 19953 ft 306 kts 284°
2026-05-05 18:47 53.10054 -1.94456 20476 ft 308 kts 284°
2026-05-05 18:48 53.10634 -1.97917 20936 ft 313 kts 284°
2026-05-05 18:48 53.11221 -2.01420 21392 ft 316 kts 284°
2026-05-05 18:48 53.11817 -2.04982 21695 ft 326 kts 284°
2026-05-05 18:48 53.12440 -2.08715 21809 ft 342 kts 284°
2026-05-05 18:49 53.13091 -2.12623 21930 ft 358 kts 284°
2026-05-05 18:49 53.13769 -2.16706 22054 ft 374 kts 284°
2026-05-05 18:49 53.14606 -2.20910 22160 ft 391 kts 290°
2026-05-05 18:49 53.15775 -2.25093 22283 ft 407 kts 295°
2026-05-05 18:50 53.16632 -2.27910 22379 ft 416 kts 295°
2026-05-05 18:50 53.18407 -2.33753 22803 ft 427 kts 295°
2026-05-05 18:50 53.19748 -2.38207 23261 ft 432 kts 295°
2026-05-05 18:50 53.21093 -2.42705 23783 ft 434 kts 295°
2026-05-05 18:51 53.21984 -2.45698 24143 ft 436 kts 294°
2026-05-05 18:51 53.23331 -2.50244 24654 ft 438 kts 294°
2026-05-05 18:51 53.24682 -2.54819 25112 ft 441 kts 294°
2026-05-05 18:51 53.26042 -2.59443 25558 ft 445 kts 294°
2026-05-05 18:52 53.27415 -2.64105 25999 ft 448 kts 294°
2026-05-05 18:52 53.28793 -2.68792 26468 ft 450 kts 294°
2026-05-05 18:52 53.30160 -2.73510 26897 ft 453 kts 292°
2026-05-05 18:52 53.31352 -2.78398 27284 ft 455 kts 289°
2026-05-05 18:53 53.32466 -2.83375 27673 ft 458 kts 289°
2026-05-05 18:53 53.33579 -2.88385 28049 ft 461 kts 289°
2026-05-05 18:53 53.34705 -2.93424 28447 ft 463 kts 289°
2026-05-05 18:53 53.35843 -2.98479 28822 ft 466 kts 289°
2026-05-05 18:54 53.36992 -3.03571 28995 ft 471 kts 289°
2026-05-05 18:54 53.38171 -3.08704 29032 ft 473 kts 291°
2026-05-05 18:54 53.41243 -3.18412 29036 ft 471 kts 302°
2026-05-05 18:55 53.45052 -3.27298 29047 ft 468 kts 304°
2026-05-05 18:55 53.48831 -3.36070 29046 ft 466 kts 303°
2026-05-05 18:56 53.52587 -3.44936 29047 ft 466 kts 303°
2026-05-05 18:56 53.56336 -3.53837 29047 ft 466 kts 303°
2026-05-05 18:57 53.59906 -3.62911 29042 ft 463 kts 294°
2026-05-05 18:57 53.61904 -3.73145 29068 ft 462 kts 278°
2026-05-05 18:58 53.62228 -3.78557 29217 ft 466 kts 272°
2026-05-05 18:58 53.62392 -3.84007 29587 ft 467 kts 272°
2026-05-05 18:58 53.62584 -3.89451 30153 ft 462 kts 272°
2026-05-05 18:58 53.62804 -3.94834 30662 ft 460 kts 272°
2026-05-05 18:59 53.63028 -4.00210 31043 ft 460 kts 272°
2026-05-05 18:59 53.63244 -4.05577 31392 ft 460 kts 272°
2026-05-05 18:59 53.63454 -4.10957 31776 ft 459 kts 272°
2026-05-05 18:59 53.63654 -4.16317 32083 ft 460 kts 272°
2026-05-05 19:00 53.64054 -4.27135 32043 ft 461 kts 272°